Location: B?lite?ti
(46.2833°N, 22.7333°E)
Time: 17:29:24
(UTC+00:00)

USA 234 - Pass Details

Date: 24 January 2021
Orbit: 1100 x 1107 km, 123.0° (Epoch: 26 February)

Event Time Altitude Azimuth Distance (km) Brightness Sun altitude
Exits shadow 19:16:48 37° 317° (NW) 1,649 4.4 -40.2°
Drops below altitude 10° 19:20:30 10° 309° (NW) 2,966 6.1 -40.8°
Sets 19:23:00 0° 308° (NW) 3,927 6.9 -41.2°
